Location: Home
(42.5358°N, 72.7383°W)
Time: 17:11:53
(UTC-05:00)

A-11 Canister half - Pass Details

Date: 02 December 2021
Orbit: 1516 x 1684 km, 47.2° (Epoch: 18 January)

Event Time Altitude Azimuth Distance (km) Brightness Sun altitude
Rises 04:48:59 0° 183° (S) 4,715 11.6 -23.9°
Reaches altitude 10° 04:53:06 10° 167° (SSE) 3,763 11.3 -23.2°
Maximum altitude 04:59:25 20° 125° (SE) 3,094 11.3 -22.0°
Drops below altitude 10° 05:05:52 10° 83° (E) 3,865 12.1 -20.9°
Sets 05:10:08 0° 68° (ENE) 4,883 12.6 -20.1°
